Flag for U.S.A. Weather past 2 weeks in Abilene, Texas, U.S.A.

Now
50 °F

Overcast.


Feels Like: 47 °F
Forecast: 45 / 64 °F
Wind: 8 mph from Southeast

Location: Abilene Regional Airport

Current Time: Dec 20, 2014 at 7:19:29 PM

Latest Report: Dec 20, 2014 at 6:52 PM


Visibility: 10 mi

Pressure: 30.11 "Hg

Humidity: 71%

Dew point: 41 °F

Location of AbileneLocation

Historic Weather in Abilene — Graph

°F

Abilene temperature yesterday

Maximum temperature yesterday: 47 °F (at 12:52 PM)
Minimum temperature yesterday: 42 °F (at 2:52 AM)
Average temperature yesterday: 44 °F

Past Weeks' High & Low Weather Summary

 TemperatureHumidityPressure
High73 °F (Dec 14, 1:52 PM)100% (Dec 8, 5:52 AM)30.44 "Hg (Dec 8, 5:52 AM)
Low34 °F (Dec 16, 7:52 AM)21% (Dec 14, 2:52 PM)29.70 "Hg (Dec 14, 3:52 PM)
Average54 °F71%30.15 "Hg
* Reported Dec 5 5:52 PM — Dec 20 5:52 PM, Abilene, Weather by CustomWeather, © 2014

Note: Actual official high and low records may vary slightly from our data, if they occured in-between our weather recording intervals... More about our weather records

Advertising

Abilene weather history for previous 24 hours

 ConditionsComfort  
Time TempWeatherWind HumidityBarometerVisibility
5:52 PM
Dec 20
50 °FOvercast.8 mph71%30.09 "Hg10 mi
4:52 PM51 °FPartly sunny.10 mph66%30.09 "Hg10 mi
3:52 PM52 °FPartly sunny.8 mph64%30.10 "Hg10 mi
2:52 PM50 °FOvercast.9 mph68%30.11 "Hg10 mi
1:52 PM50 °FOvercast.7 mph68%30.13 "Hg10 mi
12:52 PM48 °FOvercast.7 mph71%30.17 "Hg10 mi
11:52 AM46 °FOvercast.7 mph73%30.22 "Hg10 mi
10:52 AM46 °FOvercast.7 mph73%30.24 "Hg10 mi
9:52 AM46 °FOvercast.3 mph73%30.22 "Hg10 mi
8:52 AM45 °FOvercast.No wind76%30.20 "Hg10 mi
7:52 AM45 °FOvercast.No wind74%30.19 "Hg10 mi
6:52 AM44 °FOvercast.No wind76%30.19 "Hg10 mi
5:52 AM44 °FOvercast.6 mph79%30.18 "Hg10 mi
4:52 AM45 °FOvercast.No wind76%30.18 "Hg10 mi
3:52 AM45 °FOvercast.No wind76%30.19 "Hg10 mi
2:52 AM45 °FOvercast.5 mph80%30.18 "Hg10 mi
1:52 AM45 °FOvercast.No wind80%30.19 "Hg10 mi
12:52 AM45 °FOvercast.No wind86%30.19 "Hg10 mi
11:52 PM
Dec 19
44 °FOvercast.3 mph89%30.20 "Hg10 mi
10:52 PM44 °FOvercast.No wind89%30.20 "Hg10 mi
9:52 PM44 °FOvercast.No wind89%30.20 "Hg10 mi
8:52 PM44 °FOvercast.5 mph93%30.20 "Hg8 mi
7:52 PM45 °FMostly cloudy.6 mph86%30.20 "Hg7 mi
Weather by CustomWeather, © 2014

See weather overviewHow to use our weather pages